| time (UTC) | temp F | wind direction | speed knots | gust knots | rain 1hr in | rain 24hr in | rain mn in | humidity % | barometer mb |
| 20260505123857 | 62 | 225 | 0.0 | 0.0 | 0.03 | 0.06 | 0.00 | 54 | 1008.1 |
| 20260505123352 | 62 | 360 | 0.9 | 3.5 | 0.03 | 0.06 | 0.00 | 53 | 1008.1 |
| 20260505122834 | 62 | 202 | 0.9 | 1.7 | 0.03 | 0.06 | 0.00 | 55 | 1008.1 |
| 20260505122326 | 61 | 315 | 0.9 | 3.5 | 0.03 | 0.06 | 0.00 | 55 | 1008.1 |
| 20260505121810 | 61 | 290 | 0.9 | 1.7 | 0.03 | 0.06 | 0.00 | 55 | 1008.1 |
| 20260505121251 | 60 | 315 | 0.0 | 4.3 | 0.03 | 0.06 | 0.00 | 55 | 1008.1 |
| 20260505120736 | 60 | 301 | 0.9 | 3.5 | 0.03 | 0.06 | 0.00 | 56 | 1008.1 |
| 20260505120229 | 60 | 321 | 1.7 | 3.5 | 0.01 | 0.04 | 0.00 | 56 | 1008.1 |
| 20260505115722 | 60 | 354 | 0.0 | 0.9 | 0.00 | 0.03 | 0.00 | 57 | 1008.1 |
| 20260505115204 | 59 | 360 | 0.0 | 1.7 | 0.00 | 0.03 | 0.00 | 57 | 1008.1 |
| 20260505114653 | 59 | 270 | 0.0 | 1.7 | 0.00 | 0.03 | 0.00 | 58 | 1008.1 |
| 20260505114135 | 59 | 357 | 0.0 | 0.9 | 0.00 | 0.03 | 0.00 | 58 | 1007.7 |
| 20260505113631 | 59 | 360 | 0.0 | 1.7 | 0.01 | 0.03 | 0.00 | 58 | 1008.1 |
| 20260505113111 | 59 | 135 | 0.0 | 0.9 | 0.01 | 0.03 | 0.00 | 58 | 1007.7 |
| 20260505112559 | 59 | 180 | 0.0 | 0.9 | 0.01 | 0.03 | 0.00 | 59 | 1007.7 |
| 20260505112049 | 58 | 314 | 0.0 | 1.7 | 0.01 | 0.03 | 0.00 | 59 | 1007.7 |
| 20260505111543 | 58 | 191 | 0.0 | 1.7 | 0.01 | 0.03 | 0.00 | 59 | 1007.7 |
| 20260505111030 | 58 | 270 | 0.0 | 0.9 | 0.01 | 0.03 | 0.00 | 60 | 1007.7 |
| 20260505110524 | 57 | 45 | 0.0 | 1.7 | 0.01 | 0.03 | 0.00 | 60 | 1007.4 |
| 20260505101917 | 56 | 315 | 0.0 | 1.7 | 0.00 | 0.02 | 0.00 | 62 | 1007.1 |
| 20260505101411 | 56 | 270 | 0.0 | 0.9 | 0.00 | 0.02 | 0.00 | 63 | 1007.1 |
| 20260505100908 | 56 | 270 | 0.0 | 0.9 | 0.00 | 0.02 | 0.00 | 63 | 1007.1 |
| 20260505100335 | 56 | 315 | 0.0 | 1.7 | 0.00 | 0.02 | 0.00 | 63 | 1007.1 |
| 20260505095825 | 56 | 360 | 0.0 | 3.5 | 0.00 | 0.02 | 0.00 | 63 | 1007.1 |
| 20260505095312 | 55 | 247 | 0.0 | 1.7 | 0.00 | 0.02 | 0.00 | 63 | 1007.1 |
| 20260505094757 | 55 | 319 | 0.9 | 0.9 | 0.00 | 0.02 | 0.00 | 64 | 1007.1 |
| 20260505094250 | 55 | 294 | 1.7 | 3.5 | 0.00 | 0.02 | 0.00 | 64 | 1007.1 |
| 20260505093749 | 55 | 135 | 0.0 | 0.0 | 0.00 | 0.02 | 0.00 | 65 | 1007.1 |
| 20260505093244 | 55 | 315 | 0.0 | 0.9 | 0.00 | 0.02 | 0.00 | 65 | 1007.1 |
| 20260505092736 | 55 | 270 | 0.0 | 0.9 | 0.00 | 0.02 | 0.00 | 65 | 1007.1 |
| 20260505092234 | 55 | 21 | 0.0 | 0.9 | 0.00 | 0.02 | 0.00 | 65 | 1006.7 |
| 20260505091727 | 55 | 270 | 0.0 | 0.9 | 0.00 | 0.02 | 0.00 | 65 | 1006.7 |
| 20260505091224 | 55 | 135 | 0.0 | 0.9 | 0.00 | 0.02 | 0.00 | 65 | 1006.7 |
| 20260505090706 | 55 | 180 | 0.0 | 0.9 | 0.00 | 0.02 | 0.00 | 65 | 1006.7 |
| 20260505090158 | 55 | 225 | 0.0 | 0.9 | 0.00 | 0.02 | 0.00 | 66 | 1006.7 |
| 20260505085954 | 55 | 225 | 0.0 | 0.9 | 0.01 | 0.02 | 0.00 | 65 | 1006.7 |
| 20260505085444 | 55 | 135 | 0.0 | 0.0 | 0.01 | 0.02 | 0.00 | 65 | 1006.7 |
| 20260505084939 | 55 | 270 | 0.0 | 0.9 | 0.01 | 0.02 | 0.00 | 65 | 1006.7 |
| 20260505084437 | 55 | 360 | 0.0 | 3.5 | 0.01 | 0.02 | 0.00 | 65 | 1006.7 |
| 20260505083933 | 55 | 13 | 0.9 | 0.9 | 0.01 | 0.02 | 0.00 | 66 | 1006.7 |
| 20260505083430 | 55 | 360 | 0.0 | 1.7 | 0.01 | 0.02 | 0.00 | 66 | 1006.7 |
| 20260505082915 | 55 | 337 | 0.0 | 0.9 | 0.01 | 0.02 | 0.00 | 66 | 1006.7 |
| 20260505082359 | 55 | 270 | 0.0 | 1.7 | 0.01 | 0.02 | 0.00 | 65 | 1006.4 |
| 20260505081852 | 55 | 360 | 0.0 | 0.9 | 0.00 | 0.01 | 0.00 | 66 | 1006.4 |
| 20260505081345 | 55 | 270 | 0.0 | 0.9 | 0.00 | 0.01 | 0.00 | 66 | 1006.4 |
| 20260505080827 | 55 | 360 | 0.0 | 0.0 | 0.00 | 0.01 | 0.00 | 66 | 1006.4 |
| 20260505080324 | 55 | 337 | 0.0 | 0.9 | 0.00 | 0.01 | 0.00 | 66 | 1006.4 |
| 20260505075814 | 55 | 315 | 0.0 | 3.5 | 0.00 | 0.01 | 0.00 | 67 | 1006.4 |
| 20260505075309 | 55 | 340 | 0.9 | 4.3 | 0.00 | 0.01 | 0.00 | 68 | 1006.4 |
| 20260505074808 | 55 | 315 | 0.0 | 0.9 | 0.00 | 0.01 | 0.00 | 68 | 1006.4 |
| 20260505074256 | 55 | 360 | 0.0 | 1.7 | 0.00 | 0.01 | 0.00 | 68 | 1006.4 |
| 20260505073750 | 54 | 270 | 0.0 | 0.0 | 0.00 | 0.01 | 0.00 | 68 | 1006.4 |
| 20260505073240 | 54 | 315 | 0.0 | 0.9 | 0.00 | 0.01 | 0.00 | 67 | 1006.4 |
| 20260505072733 | 54 | 315 | 0.0 | 0.0 | 0.00 | 0.01 | 0.00 | 68 | 1006.4 |
| 20260505072226 | 54 | 315 | 0.0 | 1.7 | 0.00 | 0.01 | 0.00 | 68 | 1006.4 |
| 20260505071725 | 54 | 337 | 0.0 | 0.0 | 0.00 | 0.01 | 0.00 | 69 | 1006.4 |
| 20260505071222 | 54 | 45 | 0.0 | 0.9 | 0.00 | 0.01 | 0.00 | 69 | 1006.4 |
| 20260505070711 | 54 | 45 | 0.0 | 0.0 | 0.00 | 0.01 | 0.00 | 69 | 1006.4 |
| 20260505070205 | 54 | 45 | 0.0 | 0.0 | 0.00 | 0.01 | 0.00 | 67 | 1006.4 |
| 20260505065702 | 55 | 45 | 0.0 | 0.9 | 0.00 | 0.01 | 0.00 | 66 | 1006.4 |
| 20260505065152 | 55 | 45 | 0.0 | 0.0 | 0.00 | 0.01 | 0.00 | 67 | 1006.0 |
| 20260505064642 | 55 | 45 | 0.0 | 0.0 | 0.00 | 0.01 | 0.00 | 66 | 1006.4 |
| 20260505064138 | 55 | 45 | 0.0 | 0.0 | 0.00 | 0.01 | 0.00 | 65 | 1006.0 |
| 20260505063631 | 55 | 45 | 0.0 | 0.0 | 0.00 | 0.01 | 0.00 | 65 | 1006.4 |
| 20260505063126 | 55 | 45 | 0.0 | 0.0 | 0.00 | 0.01 | 0.00 | 65 | 1006.0 |
| 20260505062623 | 55 | 45 | 0.0 | 0.0 | 0.00 | 0.01 | 0.00 | 64 | 1006.4 |
| 20260505062118 | 56 | 45 | 0.0 | 0.0 | 0.00 | 0.01 | 0.00 | 64 | 1006.0 |
| 20260505061610 | 56 | 45 | 0.0 | 0.0 | 0.00 | 0.01 | 0.00 | 65 | 1006.0 |
| 20260505061106 | 56 | 45 | 0.0 | 0.9 | 0.00 | 0.01 | 0.00 | 63 | 1006.0 |
| 20260505060603 | 56 | 45 | 0.0 | 0.0 | 0.00 | 0.01 | 0.00 | 63 | 1006.4 |
| 20260505060059 | 56 | 45 | 0.0 | 0.9 | 0.00 | 0.01 | 0.00 | 63 | 1006.4 |
| 20260505055558 | 56 | 360 | 0.0 | 0.0 | 0.00 | 0.01 | 0.00 | 63 | 1006.4 |
| 20260505055057 | 57 | 360 | 0.0 | 0.0 | 0.00 | 0.01 | 0.00 | 62 | 1006.4 |
| 20260505054548 | 57 | 360 | 0.0 | 0.0 | 0.00 | 0.01 | 0.00 | 62 | 1006.0 |
| 20260505054038 | 57 | 360 | 0.0 | 0.0 | 0.00 | 0.01 | 0.00 | 62 | 100.5 |
| 20260505053517 | 57 | 360 | 0.0 | 0.0 | 0.00 | 0.01 | 0.00 | 62 | 1006.0 |
| 20260505053010 | 57 | 360 | 0.0 | 0.9 | 0.00 | 0.01 | 0.00 | 61 | 1006.0 |
| 20260505052452 | 57 | 135 | 0.0 | 0.0 | 0.00 | 0.01 | 0.00 | 61 | 1006.0 |
| 20260505051948 | 58 | 135 | 0.0 | 0.0 | 0.00 | 0.01 | 0.00 | 60 | 1006.4 |
| 20260505051439 | 58 | 66 | 0.0 | 0.9 | 0.00 | 0.01 | 0.00 | 60 | 1006.0 |
| 20260505050931 | 58 | 66 | 0.0 | 0.9 | 0.00 | 0.01 | 0.00 | 60 | 1006.0 |
| 20260505050423 | 58 | 66 | 0.0 | 0.9 | 0.00 | 0.01 | 0.00 | 59 | 1006.0 |
| 20260505041727 | 60 | 360 | 0.0 | 0.0 | 0.00 | 0.01 | 0.00 | 55 | 1006.0 |
| 20260505041214 | 60 | 360 | 0.0 | 0.0 | 0.00 | 0.01 | 0.00 | 55 | 1006.0 |
| 20260505040712 | 60 | 360 | 0.0 | 0.0 | 0.00 | 0.01 | 0.00 | 54 | 1006.4 |
| 20260505040208 | 61 | 360 | 0.0 | 0.0 | 0.00 | 0.01 | 0.00 | 54 | 1006.4 |
| 20260505035703 | 61 | 360 | 0.0 | 0.0 | 0.00 | 0.01 | 0.00 | 53 | 1006.4 |
| 20260505035203 | 61 | 360 | 0.0 | 0.0 | 0.00 | 0.01 | 0.00 | 54 | 1006.4 |
| 20260505034658 | 62 | 360 | 0.0 | 0.9 | 0.00 | 0.01 | 0.00 | 53 | 1006.4 |
| 20260505034153 | 62 | 360 | 0.0 | 0.9 | 0.00 | 0.01 | 0.00 | 52 | 1006.4 |
| 20260505033647 | 62 | 315 | 0.0 | 0.9 | 0.00 | 0.01 | 0.00 | 51 | 1006.0 |
| 20260505033141 | 62 | 315 | 0.0 | 1.7 | 0.00 | 0.01 | 0.00 | 51 | 1006.4 |
| 20260505032634 | 62 | 360 | 0.0 | 0.9 | 0.00 | 0.01 | 0.00 | 51 | 1006.4 |
| 20260505032127 | 62 | 135 | 0.0 | 0.9 | 0.00 | 0.01 | 0.00 | 51 | 1006.4 |
| 20260505031621 | 63 | 315 | 0.0 | 0.9 | 0.00 | 0.01 | 0.00 | 51 | 1006.4 |
| 20260505031115 | 63 | 315 | 0.0 | 0.9 | 0.00 | 0.01 | 0.00 | 51 | 1006.4 |
| 20260505030603 | 63 | 337 | 0.0 | 0.0 | 0.00 | 0.01 | 0.00 | 50 | 1006.4 |
| 20260505025559 | 63 | 360 | 0.0 | 0.9 | 0.00 | 0.01 | 0.00 | 48 | 1006.4 |
| 20260505025057 | 64 | 360 | 0.0 | 0.9 | 0.00 | 0.01 | 0.00 | 48 | 1006.4 |
| 20260505024548 | 64 | 360 | 0.0 | 1.7 | 0.00 | 0.01 | 0.00 | 47 | 1006.0 |
| 20260505024035 | 64 | 360 | 0.0 | 0.0 | 0.00 | 0.01 | 0.00 | 47 | 1006.4 |
| 20260505023531 | 65 | 360 | 0.0 | 0.9 | 0.00 | 0.01 | 0.00 | 47 | 1006.4 |
| 20260505023023 | 65 | 45 | 0.0 | 0.9 | 0.00 | 0.01 | 0.00 | 46 | 1006.0 |
| 20260505022517 | 65 | 45 | 0.0 | 0.9 | 0.00 | 0.01 | 0.00 | 45 | 1006.0 |
| 20260505022015 | 66 | 315 | 0.0 | 1.7 | 0.00 | 0.01 | 0.00 | 45 | 1006.0 |
| 20260505021459 | 66 | 360 | 0.0 | 0.0 | 0.01 | 0.01 | 0.00 | 44 | 1006.0 |
| 20260505020940 | 66 | 270 | 0.0 | 0.9 | 0.01 | 0.01 | 0.00 | 44 | 1006.0 |
| 20260505020434 | 66 | 180 | 0.0 | 0.9 | 0.01 | 0.01 | 0.00 | 43 | 1006.0 |
| 20260505015924 | 67 | 32 | 0.0 | 3.5 | 0.01 | 0.01 | 0.00 | 43 | 1006.0 |
| 20260505015407 | 67 | 360 | 0.0 | 3.5 | 0.01 | 0.01 | 0.00 | 42 | 1006.0 |
| 20260505014900 | 67 | 287 | 0.9 | 3.5 | 0.01 | 0.01 | 0.00 | 42 | 1006.0 |
| 20260505014350 | 67 | 360 | 0.0 | 4.3 | 0.01 | 0.01 | 0.00 | 41 | 1006.0 |
| 20260505013839 | 67 | 309 | 0.9 | 4.3 | 0.01 | 0.01 | 0.00 | 40 | 1005.7 |
| 20260505013321 | 68 | 45 | 0.0 | 1.7 | 0.01 | 0.01 | 0.00 | 40 | 1005.7 |
| 20260505012817 | 68 | 316 | 0.9 | 1.7 | 0.01 | 0.01 | 0.00 | 40 | 1005.7 |
| 20260505012313 | 68 | 349 | 0.0 | 1.7 | 0.01 | 0.01 | 0.00 | 39 | 1005.7 |
| 20260505011757 | 68 | 360 | 0.0 | 3.5 | 0.00 | 0.00 | 0.00 | 39 | 1005.7 |
| 20260505011255 | 68 | 360 | 0.0 | 3.5 | 0.00 | 0.00 | 0.00 | 39 | 1005.7 |
| 20260505010741 | 69 | 20 | 0.9 | 1.7 | 0.00 | 0.00 | 0.00 | 38 | 1005.7 |
| 20260505010240 | 69 | 358 | 0.0 | 1.7 | 0.00 | 0.00 | 0.00 | 38 | 1005.4 |
| 20260505005721 | 69 | 341 | 2.6 | 4.3 | 0.00 | 0.00 | 0.00 | 37 | 1005.4 |
| 20260505005204 | 70 | 329 | 1.7 | 6.1 | 0.00 | 0.00 | 0.00 | 37 | 1005.4 |
| 20260505004702 | 70 | 328 | 0.9 | 4.3 | 0.00 | 0.00 | 0.00 | 37 | 1005.4 |
| 20260505004159 | 70 | 334 | 2.6 | 3.5 | 0.00 | 0.00 | 0.00 | 37 | 1005.4 |
| 20260505003637 | 70 | 346 | 1.7 | 1.7 | 0.00 | 0.00 | 0.00 | 37 | 1005.4 |
| 20260505003050 | 70 | 335 | 0.9 | 1.7 | 0.00 | 0.00 | 0.00 | 36 | 1005.4 |
| 20260505002536 | 70 | 311 | 2.6 | 4.3 | 0.00 | 0.00 | 0.00 | 36 | 1005.4 |
| 20260505002031 | 70 | 328 | 3.5 | 4.3 | 0.00 | 0.00 | 0.00 | 36 | 100.5 |
| 20260505001457 | 71 | 352 | 0.0 | 0.9 | 0.00 | 0.00 | 0.00 | 35 | 1005.4 |
| 20260505000956 | 71 | 345 | 1.7 | 3.5 | 0.00 | 0.00 | 0.00 | 35 | 1005.0 |
| 20260505000449 | 71 | 297 | 0.0 | 6.1 | 0.00 | 0.00 | 0.00 | 35 | 1005.0 |
| 20260504235940 | 71 | 336 | 1.7 | 6.1 | 0.03 | 0.20 | 0.00 | 35 | 1005.4 |
| 20260504235428 | 71 | 315 | 0.9 | 1.7 | 0.02 | 0.19 | 0.00 | 34 | 1005.0 |
| 20260504234915 | 71 | 341 | 0.9 | 6.1 | 0.03 | 0.19 | 0.00 | 34 | 1005.0 |
| 20260504234357 | 71 | 1 | 0.9 | 4.3 | 0.03 | 0.19 | 0.00 | 35 | 1005.4 |
| 20260504233855 | 71 | 319 | 0.9 | 4.3 | 0.03 | 0.19 | 0.00 | 34 | 1005.0 |
| 20260504233346 | 72 | 293 | 0.0 | 3.5 | 0.03 | 0.19 | 0.00 | 34 | 1005.0 |
| 20260504232838 | 72 | 310 | 0.9 | 0.9 | 0.02 | 0.18 | 0.00 | 33 | 1005.0 |
| 20260504232330 | 72 | 315 | 1.7 | 13.9 | 0.02 | 0.18 | 0.00 | 33 | 1004.7 |
| 20260504231829 | 72 | 108 | 0.0 | 4.3 | 0.02 | 0.18 | 0.00 | 33 | 1005.0 |
| 20260504231310 | 72 | 339 | 2.6 | 3.5 | 0.02 | 0.18 | 0.00 | 32 | 1004.7 |
| 20260504230751 | 73 | 342 | 2.6 | 3.5 | 0.02 | 0.18 | 0.00 | 32 | 1004.7 |
| 20260504230148 | 73 | 309 | 1.7 | 6.1 | 0.01 | 0.17 | 0.00 | 33 | 1004.7 |
| 20260504225634 | 73 | 323 | 1.7 | 6.1 | 0.01 | 0.17 | 0.00 | 32 | 1004.7 |
| 20260504225131 | 73 | 343 | 2.6 | 4.3 | 0.00 | 0.16 | 0.00 | 32 | 1004.7 |
| 20260504224622 | 73 | 315 | 0.9 | 3.5 | 0.00 | 0.16 | 0.00 | 32 | 1004.7 |
| 20260504224121 | 73 | 317 | 6.1 | 7.0 | 0.00 | 0.16 | 0.00 | 31 | 1004.7 |
| 20260504223612 | 73 | 296 | 1.7 | 7.0 | 0.00 | 0.16 | 0.00 | 32 | 1004.7 |
| 20260504223100 | 74 | 292 | 0.9 | 6.1 | 0.00 | 0.16 | 0.00 | 31 | 1004.7 |
| 20260504222548 | 74 | 304 | 3.5 | 7.0 | 0.00 | 0.16 | 0.00 | 31 | 1004.7 |
| 20260504222041 | 74 | 315 | 1.7 | 6.1 | 0.00 | 0.16 | 0.00 | 31 | 1004.7 |
| 20260504221729 | 74 | 121 | 1.7 | 6.1 | 0.00 | 0.16 | 0.00 | 30 | 1004.7 |
| 20260504221111 | 74 | 337 | 4.3 | 6.1 | 0.00 | 0.16 | 0.00 | 30 | 1004.7 |
| 20260504220550 | 74 | 353 | 2.6 | 6.1 | 0.00 | 0.16 | 0.00 | 30 | 1004.7 |
| 20260504220043 | 74 | 354 | 0.9 | 7.0 | 0.00 | 0.16 | 0.00 | 29 | 1004.7 |
| 20260504215537 | 74 | 352 | 1.7 | 6.1 | 0.00 | 0.16 | 0.00 | 30 | 1004.7 |
| 20260504215021 | 75 | 309 | 2.6 | 7.0 | 0.01 | 0.16 | 0.00 | 29 | 1004.7 |
| 20260504214509 | 75 | 318 | 2.6 | 3.5 | 0.01 | 0.16 | 0.00 | 29 | 1004.7 |
| 20260504214002 | 75 | 329 | 1.7 | 8.7 | 0.02 | 0.16 | 0.00 | 29 | 1004.7 |
| 20260504213501 | 75 | 167 | 0.9 | 8.7 | 0.02 | 0.16 | 0.00 | 29 | 1004.7 |
| 20260504212955 | 75 | 343 | 5.2 | 7.0 | 0.02 | 0.16 | 0.00 | 28 | 1004.7 |
| 20260504212451 | 75 | 329 | 5.2 | 8.7 | 0.02 | 0.16 | 0.00 | 28 | 1004.7 |
| 20260504211949 | 75 | 332 | 3.5 | 4.3 | 0.01 | 0.15 | 0.00 | 28 | 1004.7 |
| 20260504211420 | 75 | 269 | 0.9 | 3.5 | 0.01 | 0.15 | 0.00 | 28 | 1004.7 |
| 20260504210916 | 75 | 333 | 2.6 | 4.3 | 0.01 | 0.15 | 0.00 | 28 | 1005.0 |
| 20260504210405 | 75 | 134 | 0.0 | 4.3 | 0.01 | 0.15 | 0.00 | 28 | 1005.0 |
| 20260504205904 | 76 | 329 | 1.7 | 7.0 | 0.01 | 0.15 | 0.00 | 27 | 1004.7 |
| 20260504205403 | 76 | 337 | 4.3 | 6.1 | 0.01 | 0.15 | 0.00 | 27 | 1004.7 |
| 20260504204853 | 77 | 338 | 1.7 | 3.5 | 0.01 | 0.15 | 0.00 | 27 | 1004.7 |
| 20260504204350 | 77 | 327 | 1.7 | 12.2 | 0.01 | 0.15 | 0.00 | 27 | 1004.7 |
| 20260504203843 | 77 | 147 | 0.0 | 1.7 | 0.00 | 0.14 | 0.00 | 26 | 1004.7 |
| 20260504203328 | 78 | 315 | 5.2 | 11.3 | 0.00 | 0.14 | 0.00 | 25 | 1004.7 |
| 20260504202820 | 78 | 345 | 3.5 | 7.0 | 0.00 | 0.14 | 0.00 | 26 | 1004.7 |
| 20260504202318 | 78 | 333 | 3.5 | 4.3 | 0.00 | 0.14 | 0.00 | 25 | 1004.7 |
| 20260504201809 | 78 | 356 | 3.5 | 6.1 | 0.00 | 0.14 | 0.00 | 26 | 1004.7 |
| 20260504201308 | 78 | 329 | 3.5 | 8.7 | 0.00 | 0.14 | 0.00 | 25 | 1005.0 |
| 20260504200756 | 79 | 301 | 1.7 | 6.1 | 0.00 | 0.14 | 0.00 | 26 | 1005.0 |
| 20260504200254 | 79 | 225 | 0.0 | 1.7 | 0.00 | 0.14 | 0.00 | 26 | 1004.7 |
| 20260504195751 | 79 | 194 | 0.9 | 1.7 | 0.00 | 0.14 | 0.00 | 26 | 1005.0 |
| 20260504195233 | 79 | 332 | 1.7 | 7.0 | 0.00 | 0.14 | 0.00 | 26 | 1005.4 |
| 20260504194725 | 79 | 326 | 1.7 | 9.6 | 0.00 | 0.14 | 0.00 | 24 | 1005.4 |
| 20260504194223 | 79 | 241 | 0.9 | 1.7 | 0.00 | 0.14 | 0.00 | 26 | 1005.4 |
| 20260504193721 | 79 | 322 | 0.9 | 4.3 | 0.00 | 0.14 | 0.00 | 25 | 1005.7 |
| 20260504193206 | 79 | 344 | 1.7 | 3.5 | 0.00 | 0.14 | 0.00 | 25 | 1005.7 |
| 20260504192703 | 80 | 334 | 6.1 | 8.7 | 0.00 | 0.14 | 0.00 | 24 | 1005.7 |
| 20260504192200 | 80 | 234 | 0.9 | 7.0 | 0.00 | 0.14 | 0.00 | 24 | 1005.7 |
| 20260504191646 | 80 | 332 | 1.7 | 1.7 | 0.00 | 0.14 | 0.00 | 24 | 1005.7 |
| 20260504191139 | 80 | 331 | 2.6 | 6.1 | 0.00 | 0.14 | 0.00 | 27 | 1005.7 |
| 20260504190615 | 81 | 327 | 5.2 | 8.7 | 0.00 | 0.14 | 0.00 | 23 | 1006.0 |
| 20260504190106 | 81 | 321 | 0.9 | 1.7 | 0.00 | 0.14 | 0.00 | 25 | 1006.0 |
| 20260504185602 | 80 | 231 | 0.0 | 8.7 | 0.00 | 0.14 | 0.00 | 25 | 1006.0 |
| 20260504185055 | 81 | 328 | 4.3 | 7.0 | 0.00 | 0.14 | 0.00 | 25 | 1006.0 |
| 20260504184548 | 81 | 326 | 1.7 | 9.6 | 0.00 | 0.14 | 0.00 | 23 | 1006.4 |
| 20260504184036 | 81 | 31 | 1.7 | 7.0 | 0.00 | 0.14 | 0.00 | 24 | 1006.4 |
| 20260504183514 | 81 | 321 | 0.9 | 1.7 | 0.00 | 0.14 | 0.00 | 26 | 1006.4 |
| 20260504182959 | 81 | 311 | 0.9 | 7.0 | 0.00 | 0.14 | 0.00 | 24 | 1006.4 |
| 20260504182441 | 81 | 318 | 3.5 | 6.1 | 0.00 | 0.14 | 0.00 | 22 | 1006.4 |
| 20260504181929 | 81 | 298 | 3.5 | 4.3 | 0.00 | 0.14 | 0.00 | 23 | 1006.7 |
| 20260504181421 | 81 | 231 | 0.0 | 1.7 | 0.00 | 0.14 | 0.00 | 24 | 1006.7 |
| 20260504180918 | 81 | 135 | 0.0 | 3.5 | 0.00 | 0.14 | 0.00 | 24 | 1006.7 |
| 20260504180412 | 81 | 315 | 0.0 | 4.3 | 0.00 | 0.14 | 0.00 | 25 | 1007.1 |
| 20260504175858 | 81 | 337 | 6.1 | 9.6 | 0.00 | 0.14 | 0.00 | 24 | 1007.1 |
| 20260504175357 | 81 | 340 | 2.6 | 11.3 | 0.00 | 0.14 | 0.00 | 24 | 1007.4 |
| 20260504174836 | 81 | 350 | 2.6 | 6.1 | 0.00 | 0.14 | 0.00 | 24 | 1007.4 |
| 20260504174331 | 81 | 318 | 0.0 | 1.7 | 0.00 | 0.14 | 0.00 | 23 | 1007.4 |
| 20260504173820 | 81 | 315 | 2.6 | 3.5 | 0.00 | 0.14 | 0.00 | 24 | 1007.4 |
| 20260504173311 | 80 | 172 | 0.0 | 3.5 | 0.00 | 0.14 | 0.00 | 25 | 1007.4 |
| 20260504172806 | 80 | 356 | 1.7 | 8.7 | 0.00 | 0.14 | 0.00 | 23 | 1007.4 |
| 20260504172303 | 80 | 332 | 2.6 | 4.3 | 0.00 | 0.14 | 0.00 | 26 | 1007.7 |
| 20260504171734 | 80 | 136 | 0.9 | 7.0 | 0.00 | 0.14 | 0.00 | 26 | 1007.7 |
| 20260504171215 | 80 | 285 | 0.0 | 9.6 | 0.00 | 0.14 | 0.00 | 26 | 1007.7 |
| 20260504170702 | 79 | 330 | 0.9 | 7.0 | 0.00 | 0.14 | 0.00 | 26 | 1007.7 |
| 20260504170154 | 79 | 21 | 0.9 | 6.1 | 0.00 | 0.14 | 0.00 | 28 | 1007.7 |
| 20260504151130 | 73 | 280 | 0.9 | 6.1 | 0.01 | 0.14 | 0.00 | 31 | 1009.4 |
| 20260504150618 | 72 | 326 | 2.6 | 4.3 | 0.01 | 0.14 | 0.00 | 30 | 1009.4 |
| 20260504150107 | 72 | 350 | 2.6 | 6.1 | 0.01 | 0.14 | 0.00 | 31 | 1009.4 |
| 20260504140951 | 66 | 332 | 2.6 | 4.3 | 0.00 | 0.13 | 0.00 | 39 | 1009.4 |
| 20260504140442 | 65 | 184 | 0.0 | 0.9 | 0.00 | 0.13 | 0.00 | 39 | 1009.4 |
| 20260504130746 | 55 | 32 | 0.9 | 3.5 | 0.01 | 0.13 | 0.00 | 51 | 1009.8 |
| 20260504130237 | 55 | 329 | 0.9 | 3.5 | 0.01 | 0.13 | 0.00 | 51 | 1010.1 |